Station Historical Data
Daily Summary for August 6, 2017 Units:  English    Metric   Both
Next Day »
Daily Weekly Monthly Yearly Custom
  High: Low: Average:
Temperature: 89.3 °F 68.6 °F 75.8 °F
Dew Point: 60.6 °F 39.5 °F 52.2 °F
Humidity: 68% 19% 47%
Wind Speed: 13.0mph 0.0mph 3.1mph
Wind Gust: 18.0mph - -
Wind- - SSE
Pressure: 29.88 in 29.83 in -
Precipitation: 0.00 in    
Historical Graphs
 
 
Tabular Data for August 6, 2017
Time Temperature Dew Point Pressure Wind Wind Speed Wind Gust Humidity Rainfall Rate (Hourly) solar Conditions
00:02 71.7 °F 60.6 °F 29.84 in Calm   12.0 mph 68% 0.00 in 0.00 W/m2
00:07 71.6 °F 60.5 °F 29.84 in ESE 5.0 mph 13.0 mph 68% 0.00 in 0.00 W/m2
00:12 71.6 °F 60.1 °F 29.84 in ESE 7.0 mph 11.0 mph 67% 0.00 in 0.00 W/m2
00:14 71.5 °F 60.0 °F 29.84 in Calm   11.0 mph 67% 0.00 in 0.00 W/m2
00:19 71.5 °F 60.0 °F 29.84 in East 8.0 mph 15.0 mph 67% 0.00 in 0.00 W/m2
00:24 71.4 °F 59.5 °F 29.84 in ESE 11.0 mph 13.0 mph 66% 0.00 in 0.00 W/m2
00:29 71.4 °F 59.5 °F 29.84 in Calm   15.0 mph 66% 0.00 in 0.00 W/m2
00:34 71.4 °F 59.0 °F 29.84 in ESE 7.0 mph 15.0 mph 65% 0.00 in 0.00 W/m2
00:39 71.3 °F 58.9 °F 29.84 in East 11.0 mph 14.0 mph 65% 0.00 in 0.00 W/m2
00:44 71.3 °F 58.9 °F 29.83 in Calm   16.0 mph 65% 0.00 in 0.00 W/m2
00:49 71.3 °F 58.9 °F 29.83 in ESE 8.0 mph 15.0 mph 65% 0.00 in 0.00 W/m2
00:54 71.3 °F 58.5 °F 29.83 in ESE 2.0 mph 12.0 mph 64% 0.00 in 0.00 W/m2
00:59 71.3 °F 58.1 °F 29.83 in ESE 13.0 mph 16.0 mph 63% 0.00 in 0.00 W/m2
01:05 71.3 °F 58.1 °F 29.84 in East 6.0 mph 12.0 mph 63% 0.00 in 0.00 W/m2
01:10 71.4 °F 57.7 °F 29.83 in ESE 5.0 mph 15.0 mph 62% 0.00 in 0.00 W/m2
01:15 71.4 °F 57.7 °F 29.83 in Calm   13.0 mph 62% 0.00 in 0.00 W/m2
01:20 71.5 °F 57.4 °F 29.83 in ESE 6.0 mph 18.0 mph 61% 0.00 in 0.00 W/m2
01:25 71.5 °F 57.4 °F 29.83 in ESE 12.0 mph 15.0 mph 61% 0.00 in 0.00 W/m2
01:30 71.5 °F 57.4 °F 29.83 in ESE 6.0 mph 16.0 mph 61% 0.00 in 0.00 W/m2
01:35 71.5 °F 57.4 °F 29.83 in ESE 2.0 mph 15.0 mph 61% 0.00 in 0.00 W/m2
01:40 71.5 °F 57.4 °F 29.83 in Calm   14.0 mph 61% 0.00 in 0.00 W/m2
01:45 71.5 °F 57.4 °F 29.83 in Calm   12.0 mph 61% 0.00 in 0.00 W/m2
01:50 71.4 °F 57.3 °F 29.83 in Calm   11.0 mph 61% 0.00 in 0.00 W/m2
01:55 71.4 °F 57.3 °F 29.83 in Calm   12.0 mph 61% 0.00 in 0.00 W/m2
02:00 71.3 °F 57.2 °F 29.83 in ESE 6.0 mph 13.0 mph 61% 0.00 in 0.00 W/m2
02:05 71.3 °F 57.2 °F 29.83 in East 13.0 mph 13.0 mph 61% 0.00 in 0.00 W/m2
02:10 71.2 °F 57.1 °F 29.83 in East 9.0 mph 15.0 mph 61% 0.00 in 0.00 W/m2
02:15 71.2 °F 56.6 °F 29.83 in ESE 2.0 mph 11.0 mph 60% 0.00 in 0.00 W/m2
02:20 71.1 °F 56.5 °F 29.83 in ESE 1.0 mph 16.0 mph 60% 0.00 in 0.00 W/m2
02:25 71.1 °F 56.5 °F 29.84 in Calm   11.0 mph 60% 0.00 in 0.00 W/m2
02:30 71.1 °F 56.5 °F 29.83 in East 6.0 mph 12.0 mph 60% 0.00 in 0.00 W/m2
02:35 71.0 °F 56.4 °F 29.84 in Calm   11.0 mph 60% 0.00 in 0.00 W/m2
02:40 71.0 °F 56.4 °F 29.83 in Calm   12.0 mph 60% 0.00 in 0.00 W/m2
02:45 71.0 °F 56.4 °F 29.83 in Calm   12.0 mph 60% 0.00 in 0.00 W/m2
02:50 71.0 °F 56.4 °F 29.83 in Calm   11.0 mph 60% 0.00 in 0.00 W/m2
02:55 70.9 °F 56.3 °F 29.83 in ESE 9.0 mph 12.0 mph 60% 0.00 in 0.00 W/m2
03:00 70.8 °F 56.2 °F 29.83 in ESE 11.0 mph 14.0 mph 60% 0.00 in 0.00 W/m2
03:05 70.8 °F 56.2 °F 29.83 in ESE 4.0 mph 12.0 mph 60% 0.00 in 0.00 W/m2
03:10 70.7 °F 56.2 °F 29.83 in ESE 8.0 mph 15.0 mph 60% 0.00 in 0.00 W/m2
03:15 70.6 °F 56.1 °F 29.83 in ESE 2.0 mph 14.0 mph 60% 0.00 in 0.00 W/m2
03:20 70.5 °F 56.0 °F 29.83 in ESE 5.0 mph 15.0 mph 60% 0.00 in 0.00 W/m2
03:25 70.4 °F 55.9 °F 29.83 in ESE 8.0 mph 14.0 mph 60% 0.00 in 0.00 W/m2
03:30 70.4 °F 55.9 °F 29.83 in ESE 1.0 mph 13.0 mph 60% 0.00 in 0.00 W/m2
03:35 70.4 °F 55.9 °F 29.83 in ESE 7.0 mph 14.0 mph 60% 0.00 in 0.00 W/m2
03:40 70.3 °F 55.3 °F 29.83 in Calm   13.0 mph 59% 0.00 in 0.00 W/m2
03:45 70.3 °F 55.3 °F 29.83 in ESE 5.0 mph 18.0 mph 59% 0.00 in 0.00 W/m2
03:50 70.3 °F 55.3 °F 29.83 in ESE 6.0 mph 13.0 mph 59% 0.00 in 0.00 W/m2
03:55 70.2 °F 55.2 °F 29.83 in ESE 8.0 mph 12.0 mph 59% 0.00 in 0.00 W/m2
04:00 70.2 °F 55.2 °F 29.83 in ESE 7.0 mph 13.0 mph 59% 0.00 in 0.00 W/m2
04:05 70.2 °F 55.2 °F 29.83 in ESE 7.0 mph 13.0 mph 59% 0.00 in 0.00 W/m2
04:10 70.1 °F 55.1 °F 29.83 in SE 4.0 mph 13.0 mph 59% 0.00 in 0.00 W/m2
04:15 70.1 °F 55.1 °F 29.83 in ESE 7.0 mph 15.0 mph 59% 0.00 in 0.00 W/m2
04:21 70.0 °F 55.0 °F 29.83 in Calm   12.0 mph 59% 0.00 in 0.00 W/m2
04:26 70.0 °F 55.0 °F 29.83 in ESE 9.0 mph 14.0 mph 59% 0.00 in 0.00 W/m2
04:31 69.9 °F 54.9 °F 29.83 in Calm   12.0 mph 59% 0.00 in 0.00 W/m2
04:36 69.9 °F 54.9 °F 29.83 in ESE 2.0 mph 15.0 mph 59% 0.00 in 0.00 W/m2
04:41 69.8 °F 54.8 °F 29.83 in SE 2.0 mph 14.0 mph 59% 0.00 in 0.00 W/m2
04:46 69.8 °F 54.8 °F 29.83 in ESE 5.0 mph 18.0 mph 59% 0.00 in 0.00 W/m2
04:51 69.8 °F 54.8 °F 29.83 in ESE 11.0 mph 15.0 mph 59% 0.00 in 0.00 W/m2
04:56 69.7 °F 54.8 °F 29.83 in Calm   5.0 mph 59% 0.00 in 0.00 W/m2
05:01 69.7 °F 54.8 °F 29.83 in ESE 11.0 mph 12.0 mph 59% 0.00 in 0.00 W/m2
05:06 69.7 °F 54.8 °F 29.83 in ESE 5.0 mph 5.0 mph 59% 0.00 in 0.00 W/m2
05:11 69.6 °F 54.7 °F 29.83 in ESE 8.0 mph 16.0 mph 59% 0.00 in 0.00 W/m2
05:16 69.6 °F 54.7 °F 29.83 in ESE 6.0 mph 9.0 mph 59% 0.00 in 0.00 W/m2
05:21 69.6 °F 54.7 °F 29.83 in ESE 12.0 mph 14.0 mph 59% 0.00 in 0.00 W/m2
05:26 69.6 °F 54.7 °F 29.83 in ESE 8.0 mph 11.0 mph 59% 0.00 in 0.00 W/m2
05:31 69.6 °F 54.7 °F 29.83 in ESE 6.0 mph 9.0 mph 59% 0.00 in 0.00 W/m2
05:36 69.5 °F 54.1 °F 29.83 in Calm   6.0 mph 58% 0.00 in 0.00 W/m2
05:41 69.5 °F 54.1 °F 29.83 in ESE 1.0 mph 7.0 mph 58% 0.00 in 0.00 W/m2
05:46 69.5 °F 54.1 °F 29.83 in ESE 6.0 mph 6.0 mph 58% 0.00 in 0.00 W/m2
05:51 69.5 °F 54.1 °F 29.83 in ESE 7.0 mph 9.0 mph 58% 0.00 in 0.00 W/m2
05:52 69.5 °F 54.1 °F 29.83 in ESE 6.0 mph 13.0 mph 58% 0.00 in 0.00 W/m2
05:57 69.5 °F 54.1 °F 29.83 in ESE 12.0 mph 14.0 mph 58% 0.00 in 0.00 W/m2
06:02 69.4 °F 54.0 °F 29.83 in East 3.0 mph 14.0 mph 58% 0.00 in 0.00 W/m2
06:07 69.4 °F 54.0 °F 29.84 in ESE 11.0 mph 15.0 mph 58% 0.00 in 0.00 W/m2
06:12 69.4 °F 54.5 °F 29.84 in East 4.0 mph 13.0 mph 59% 0.00 in 7.00 W/m2
06:17 69.4 °F 54.0 °F 29.84 in Calm   14.0 mph 58% 0.00 in 9.00 W/m2
06:22 69.3 °F 54.4 °F 29.84 in Calm   12.0 mph 59% 0.00 in 12.00 W/m2
06:27 69.3 °F 54.4 °F 29.84 in Calm   9.0 mph 59% 0.00 in 16.00 W/m2
06:32 69.2 °F 54.3 °F 29.84 in ESE 5.0 mph 14.0 mph 59% 0.00 in 19.00 W/m2
06:37 69.2 °F 54.3 °F 29.84 in ESE 6.0 mph 12.0 mph 59% 0.00 in 26.00 W/m2
06:42 69.1 °F 54.2 °F 29.85 in Calm   11.0 mph 59% 0.00 in 33.00 W/m2
06:47 69.1 °F 54.7 °F 29.85 in ESE 1.0 mph 12.0 mph 60% 0.00 in 44.00 W/m2
06:52 69.0 °F 54.5 °F 29.85 in Calm   13.0 mph 60% 0.00 in 53.00 W/m2
06:57 69.0 °F 54.5 °F 29.85 in ESE 7.0 mph 8.0 mph 60% 0.00 in 58.00 W/m2
07:02 69.0 °F 54.5 °F 29.85 in Calm   8.0 mph 60% 0.00 in 58.00 W/m2
07:07 69.0 °F 54.5 °F 29.85 in ESE 4.0 mph 11.0 mph 60% 0.00 in 39.00 W/m2
07:12 68.9 °F 54.5 °F 29.85 in ESE 5.0 mph 11.0 mph 60% 0.00 in 46.00 W/m2
07:17 68.9 °F 54.5 °F 29.86 in Calm   12.0 mph 60% 0.00 in 51.00 W/m2
07:22 68.8 °F 54.8 °F 29.85 in Calm   11.0 mph 61% 0.00 in 54.00 W/m2
07:27 68.8 °F 54.8 °F 29.86 in Calm   9.0 mph 61% 0.00 in 77.00 W/m2
07:33 68.7 °F 54.7 °F 29.86 in ESE 8.0 mph 12.0 mph 61% 0.00 in 54.00 W/m2
07:38 68.7 °F 54.7 °F 29.86 in ESE 5.0 mph 13.0 mph 61% 0.00 in 58.00 W/m2
07:43 68.6 °F 55.1 °F 29.86 in ESE 2.0 mph 11.0 mph 62% 0.00 in 98.00 W/m2
07:48 68.6 °F 55.1 °F 29.86 in East 8.0 mph 14.0 mph 62% 0.00 in 146.00 W/m2
07:53 68.6 °F 55.1 °F 29.86 in ESE 7.0 mph 12.0 mph 62% 0.00 in 125.00 W/m2
07:58 68.6 °F 55.1 °F 29.86 in Calm   12.0 mph 62% 0.00 in 125.00 W/m2
08:03 68.6 °F 55.1 °F 29.86 in ESE 1.0 mph 13.0 mph 62% 0.00 in 107.00 W/m2
08:08 68.7 °F 55.6 °F 29.86 in ESE 5.0 mph 12.0 mph 63% 0.00 in 186.00 W/m2
08:13 68.8 °F 55.7 °F 29.86 in ESE 4.0 mph 9.0 mph 63% 0.00 in 139.00 W/m2
08:18 68.9 °F 55.8 °F 29.86 in Calm   14.0 mph 63% 0.00 in 153.00 W/m2
08:23 69.0 °F 55.9 °F 29.86 in ESE 9.0 mph 12.0 mph 63% 0.00 in 141.00 W/m2
08:28 69.0 °F 55.5 °F 29.86 in ESE 5.0 mph 12.0 mph 62% 0.00 in 128.00 W/m2
08:33 69.2 °F 55.6 °F 29.86 in ESE 5.0 mph 11.0 mph 62% 0.00 in 415.00 W/m2
08:38 69.3 °F 56.2 °F 29.86 in ESE 1.0 mph 14.0 mph 63% 0.00 in 410.00 W/m2
08:43 69.4 °F 55.8 °F 29.87 in ESE 8.0 mph 8.0 mph 62% 0.00 in 424.00 W/m2
08:48 69.6 °F 56.0 °F 29.86 in ESE 8.0 mph 8.0 mph 62% 0.00 in 438.00 W/m2
08:53 69.9 °F 57.2 °F 29.86 in ESE 1.0 mph 8.0 mph 64% 0.00 in 468.00 W/m2
08:58 70.1 °F 56.9 °F 29.86 in Calm   9.0 mph 63% 0.00 in 504.00 W/m2
09:03 70.3 °F 57.1 °F 29.86 in ESE 6.0 mph 9.0 mph 63% 0.00 in 443.00 W/m2
09:08 70.6 °F 57.4 °F 29.86 in Calm   9.0 mph 63% 0.00 in 190.00 W/m2
09:13 70.9 °F 57.7 °F 29.86 in Calm   8.0 mph 63% 0.00 in 575.00 W/m2
09:18 71.2 °F 57.5 °F 29.86 in Calm   9.0 mph 62% 0.00 in 248.00 W/m2
09:23 71.5 °F 57.4 °F 29.86 in Calm   7.0 mph 61% 0.00 in 670.00 W/m2
09:28 71.7 °F 57.5 °F 29.86 in Calm   7.0 mph 61% 0.00 in 584.00 W/m2
09:33 72.0 °F 57.8 °F 29.86 in SE 6.0 mph 8.0 mph 61% 0.00 in 621.00 W/m2
09:39 72.2 °F 58.0 °F 29.86 in Calm   6.0 mph 61% 0.00 in 603.00 W/m2
09:44 72.5 °F 58.3 °F 29.87 in SE 1.0 mph 7.0 mph 61% 0.00 in 599.00 W/m2
09:49 72.8 °F 58.6 °F 29.87 in Calm   7.0 mph 61% 0.00 in 617.00 W/m2
09:54 73.2 °F 59.0 °F 29.86 in Calm   1.0 mph 61% 0.00 in 621.00 W/m2
09:59 73.5 °F 59.2 °F 29.87 in SE 6.0 mph 9.0 mph 61% 0.00 in 626.00 W/m2
10:04 73.9 °F 59.2 °F 29.87 in Calm   6.0 mph 60% 0.00 in 645.00 W/m2
10:09 74.3 °F 59.5 °F 29.87 in South 2.0 mph 7.0 mph 60% 0.00 in 661.00 W/m2
10:14 74.7 °F 57.5 °F 29.86 in SSE 6.0 mph 12.0 mph 55% 0.00 in 666.00 W/m2
10:19 75.1 °F 56.8 °F 29.87 in Calm   11.0 mph 53% 0.00 in 679.00 W/m2
10:24 75.7 °F 56.8 °F 29.86 in SSE 7.0 mph 8.0 mph 52% 0.00 in 691.00 W/m2
10:29 76.3 °F 57.4 °F 29.87 in SSW 4.0 mph 7.0 mph 52% 0.00 in 701.00 W/m2
10:34 76.8 °F 58.9 °F 29.87 in Calm   9.0 mph 54% 0.00 in 714.00 W/m2
10:39 77.2 °F 58.2 °F 29.86 in SSE 6.0 mph 11.0 mph 52% 0.00 in 721.00 W/m2
10:44 77.5 °F 58.0 °F 29.86 in South 8.0 mph 12.0 mph 51% 0.00 in 735.00 W/m2
10:49 77.9 °F 57.2 °F 29.86 in Calm   7.0 mph 49% 0.00 in 742.00 W/m2
10:54 78.3 °F 58.2 °F 29.87 in SSW 8.0 mph 11.0 mph 50% 0.00 in 756.00 W/m2
11:04 79.0 °F 57.7 °F 29.87 in SSW 6.0 mph 8.0 mph 48% 0.00 in 768.00 W/m2
11:09 79.3 °F 57.9 °F 29.87 in South 6.0 mph 10.0 mph 48% 0.00 in 779.00 W/m2
11:14 79.6 °F 58.2 °F 29.87 in SW 1.0 mph 7.0 mph 48% 0.00 in 789.00 W/m2
11:19 79.9 °F 57.3 °F 29.87 in SSW 1.0 mph 10.0 mph 46% 0.00 in 791.00 W/m2
11:24 80.2 °F 57.0 °F 29.87 in SSW 9.0 mph 11.0 mph 45% 0.00 in 807.00 W/m2
11:29 80.3 °F 55.1 °F 29.87 in South 6.0 mph 10.0 mph 42% 0.00 in 816.00 W/m2
11:34 80.5 °F 54.0 °F 29.87 in South 4.0 mph 10.0 mph 40% 0.00 in 817.00 W/m2
11:39 80.8 °F 52.8 °F 29.87 in SSW 4.0 mph 7.0 mph 38% 0.00 in 828.00 W/m2
11:44 81.0 °F 51.6 °F 29.87 in SSE 9.0 mph 11.0 mph 36% 0.00 in 840.00 W/m2
11:49 81.3 °F 48.7 °F 29.87 in Calm   8.0 mph 32% 0.00 in 842.00 W/m2
11:54 81.6 °F 48.9 °F 29.87 in South 2.0 mph 10.0 mph 32% 0.00 in 849.00 W/m2
11:59 82.0 °F 52.4 °F 29.87 in Calm   6.0 mph 36% 0.00 in 867.00 W/m2
12:09 82.5 °F 54.4 °F 29.88 in SSW 6.0 mph 8.0 mph 38% 0.00 in 868.00 W/m2
12:14 82.7 °F 53.8 °F 29.88 in SW 8.0 mph 15.0 mph 37% 0.00 in 979.00 W/m2
12:19 83.0 °F 51.8 °F 29.87 in SSW 1.0 mph 6.0 mph 34% 0.00 in 1034.00 W/m2
12:24 83.4 °F 49.6 °F 29.87 in South 5.0 mph 9.0 mph 31% 0.00 in 694.00 W/m2
12:29 83.6 °F 50.7 °F 29.87 in South 2.0 mph 10.0 mph 32% 0.00 in 636.00 W/m2
12:34 83.7 °F 49.9 °F 29.87 in SW 4.0 mph 10.0 mph 31% 0.00 in 963.00 W/m2
12:39 83.8 °F 49.1 °F 29.87 in SSW 6.0 mph 12.0 mph 30% 0.00 in 918.00 W/m2
12:44 84.1 °F 48.5 °F 29.87 in SSW 2.0 mph 7.0 mph 29% 0.00 in 919.00 W/m2
12:48 84.5 °F 48.8 °F 29.87 in Calm   5.0 mph 29% 0.00 in 860.00 W/m2
12:53 84.9 °F 48.2 °F 29.87 in SW 6.0 mph 13.0 mph 28% 0.00 in 828.00 W/m2
12:58 85.5 °F 47.7 °F 29.87 in SW 7.0 mph 8.0 mph 27% 0.00 in 953.00 W/m2
13:08 86.2 °F 46.3 °F 29.87 in SSW 4.0 mph 12.0 mph 25% 0.00 in 947.00 W/m2
13:13 86.6 °F 46.6 °F 29.87 in Calm   6.0 mph 25% 0.00 in 933.00 W/m2
13:18 87.0 °F 45.9 °F 29.87 in SSE 7.0 mph 11.0 mph 24% 0.00 in 905.00 W/m2
13:23 87.5 °F 44.0 °F 29.87 in South 4.0 mph 13.0 mph 22% 0.00 in 893.00 W/m2
13:28 88.0 °F 44.4 °F 29.87 in WSW 7.0 mph 9.0 mph 22% 0.00 in 900.00 W/m2
13:33 87.2 °F 43.8 °F 29.87 in SW 3.0 mph 10.0 mph 22% 0.00 in 907.00 W/m2
13:39 86.6 °F 43.3 °F 29.87 in WSW 6.0 mph 16.0 mph 22% 0.00 in 891.00 W/m2
13:44 86.2 °F 44.1 °F 29.87 in SW 7.0 mph 12.0 mph 23% 0.00 in 888.00 W/m2
13:49 86.4 °F 40.6 °F 29.87 in SW 4.0 mph 11.0 mph 20% 0.00 in 888.00 W/m2
13:54 86.8 °F 43.4 °F 29.87 in South 9.0 mph 12.0 mph 22% 0.00 in 879.00 W/m2
13:59 87.3 °F 43.8 °F 29.86 in SSE 5.0 mph 14.0 mph 22% 0.00 in 874.00 W/m2
14:04 87.9 °F 44.3 °F 29.87 in South 10.0 mph 10.0 mph 22% 0.00 in 865.00 W/m2
14:09 88.4 °F 44.8 °F 29.87 in South 5.0 mph 13.0 mph 22% 0.00 in 860.00 W/m2
14:14 88.8 °F 45.1 °F 29.86 in South 7.0 mph 11.0 mph 22% 0.00 in 854.00 W/m2
14:19 89.1 °F 45.3 °F 29.86 in SSW 4.0 mph 11.0 mph 22% 0.00 in 849.00 W/m2
14:24 89.3 °F 47.8 °F 29.86 in West 7.0 mph 8.0 mph 24% 0.00 in 844.00 W/m2
14:29 89.0 °F 44.0 °F 29.86 in SW 4.0 mph 14.0 mph 21% 0.00 in 840.00 W/m2
14:34 88.1 °F 45.7 °F 29.86 in Calm   12.0 mph 23% 0.00 in 835.00 W/m2
14:40 87.1 °F 43.7 °F 29.86 in SSW 4.0 mph 10.0 mph 22% 0.00 in 826.00 W/m2
14:45 87.0 °F 44.8 °F 29.86 in WNW 1.0 mph 9.0 mph 23% 0.00 in 817.00 W/m2
14:50 86.4 °F 43.1 °F 29.86 in SW 1.0 mph 9.0 mph 22% 0.00 in 812.00 W/m2
14:55 86.0 °F 46.1 °F 29.86 in SW 4.0 mph 11.0 mph 25% 0.00 in 800.00 W/m2
15:00 86.1 °F 41.6 °F 29.86 in SSW 10.0 mph 13.0 mph 21% 0.00 in 789.00 W/m2
15:05 86.3 °F 43.0 °F 29.85 in WSW 4.0 mph 10.0 mph 22% 0.00 in 788.00 W/m2
15:10 86.4 °F 40.6 °F 29.85 in South 8.0 mph 14.0 mph 20% 0.00 in 780.00 W/m2
15:15 86.6 °F 39.5 °F 29.85 in SSW 1.0 mph 14.0 mph 19% 0.00 in 773.00 W/m2
15:20 86.8 °F 39.6 °F 29.85 in South 5.0 mph 11.0 mph 19% 0.00 in 759.00 W/m2
15:25 86.8 °F 42.2 °F 29.85 in South 8.0 mph 9.0 mph 21% 0.00 in 749.00 W/m2
15:30 86.8 °F 41.0 °F 29.85 in SW 6.0 mph 12.0 mph 20% 0.00 in 738.00 W/m2
15:35 86.8 °F 41.0 °F 29.85 in Calm   12.0 mph 20% 0.00 in 728.00 W/m2
15:40 86.7 °F 42.1 °F 29.85 in Calm   13.0 mph 21% 0.00 in 719.00 W/m2
15:45 86.6 °F 42.1 °F 29.85 in Calm   16.0 mph 21% 0.00 in 705.00 W/m2
15:50 86.5 °F 43.2 °F 29.85 in SW 7.0 mph 11.0 mph 22% 0.00 in 693.00 W/m2
15:55 86.3 °F 43.0 °F 29.85 in SE 2.0 mph 11.0 mph 22% 0.00 in 684.00 W/m2
16:00 86.1 °F 42.8 °F 29.85 in South 3.0 mph 8.0 mph 22% 0.00 in 670.00 W/m2
16:05 86.0 °F 43.9 °F 29.85 in SW 5.0 mph 13.0 mph 23% 0.00 in 657.00 W/m2
16:10 85.9 °F 46.0 °F 29.85 in WSW 6.0 mph 7.0 mph 25% 0.00 in 645.00 W/m2
16:15 85.8 °F 47.0 °F 29.85 in SW 2.0 mph 7.0 mph 26% 0.00 in 635.00 W/m2
16:20 85.6 °F 47.8 °F 29.85 in Calm   7.0 mph 27% 0.00 in 622.00 W/m2
16:25 85.4 °F 46.7 °F 29.85 in Calm   10.0 mph 26% 0.00 in 605.00 W/m2
16:30 85.4 °F 46.7 °F 29.85 in Calm   8.0 mph 26% 0.00 in 594.00 W/m2
16:35 85.2 °F 47.5 °F 29.85 in Calm   8.0 mph 27% 0.00 in 582.00 W/m2
16:40 85.0 °F 45.3 °F 29.85 in SSW 3.0 mph 8.0 mph 25% 0.00 in 568.00 W/m2
16:45 84.9 °F 46.2 °F 29.85 in WSW 7.0 mph 9.0 mph 26% 0.00 in 552.00 W/m2
16:50 84.9 °F 46.2 °F 29.85 in Calm   10.0 mph 26% 0.00 in 538.00 W/m2
16:55 84.6 °F 46.0 °F 29.85 in SW 6.0 mph 9.0 mph 26% 0.00 in 524.00 W/m2
17:00 84.5 °F 44.9 °F 29.84 in Calm   8.0 mph 25% 0.00 in 512.00 W/m2
17:05 84.3 °F 43.6 °F 29.84 in SSW 4.0 mph 12.0 mph 24% 0.00 in 496.00 W/m2
17:10 84.3 °F 44.7 °F 29.84 in Calm   9.0 mph 25% 0.00 in 480.00 W/m2
17:15 84.2 °F 43.5 °F 29.84 in Calm   9.0 mph 24% 0.00 in 466.00 W/m2
17:20 84.2 °F 45.6 °F 29.84 in SSW 4.0 mph 8.0 mph 26% 0.00 in 450.00 W/m2
17:26 84.1 °F 45.5 °F 29.84 in SSW 2.0 mph 7.0 mph 26% 0.00 in 431.00 W/m2
17:31 84.1 °F 44.5 °F 29.84 in Calm   8.0 mph 25% 0.00 in 424.00 W/m2
17:36 84.0 °F 45.5 °F 29.84 in Calm   5.0 mph 26% 0.00 in 404.00 W/m2
17:41 84.0 °F 43.4 °F 29.84 in South 1.0 mph 7.0 mph 24% 0.00 in 388.00 W/m2
17:46 84.0 °F 46.5 °F 29.85 in WSW 3.0 mph 6.0 mph 27% 0.00 in 373.00 W/m2
17:51 83.9 °F 48.3 °F 29.85 in Calm   4.0 mph 29% 0.00 in 355.00 W/m2
17:56 83.7 °F 46.2 °F 29.85 in Calm   6.0 mph 27% 0.00 in 343.00 W/m2
18:01 83.5 °F 46.0 °F 29.85 in SSW 5.0 mph 8.0 mph 27% 0.00 in 327.00 W/m2
18:06 83.2 °F 44.8 °F 29.85 in SSW 1.0 mph 1.0 mph 26% 0.00 in 309.00 W/m2
18:11 83.1 °F 47.6 °F 29.85 in Calm   1.0 mph 29% 0.00 in 295.00 W/m2
18:16 82.8 °F 45.4 °F 29.85 in Calm     27% 0.00 in 279.00 W/m2
18:21 82.6 °F 46.2 °F 29.85 in Calm     28% 0.00 in 264.00 W/m2
18:26 82.4 °F 47.9 °F 29.85 in Calm     30% 0.00 in 248.00 W/m2
18:31 82.2 °F 48.6 °F 29.85 in Calm     31% 0.00 in 232.00 W/m2
18:36 82.0 °F 48.4 °F 29.85 in Calm     31% 0.00 in 216.00 W/m2
18:41 81.8 °F 49.1 °F 29.85 in SSW 2.0 mph 2.0 mph 32% 0.00 in 199.00 W/m2
18:46 81.6 °F 49.7 °F 29.85 in Calm     33% 0.00 in 183.00 W/m2
18:51 81.3 °F 50.3 °F 29.85 in Calm     34% 0.00 in 165.00 W/m2
18:56 81.0 °F 50.0 °F 29.85 in SSW 1.0 mph 1.0 mph 34% 0.00 in 149.00 W/m2
19:01 80.6 °F 50.5 °F 29.85 in SSW 1.0 mph 1.0 mph 35% 0.00 in 130.00 W/m2
19:11 79.8 °F 51.2 °F 29.85 in Calm     37% 0.00 in 95.00 W/m2
19:16 79.4 °F 51.6 °F 29.85 in Calm     38% 0.00 in 77.00 W/m2
19:21 79.1 °F 52.0 °F 29.85 in Calm     39% 0.00 in 63.00 W/m2
19:26 78.6 °F 52.3 °F 29.85 in Calm     40% 0.00 in 49.00 W/m2
19:31 78.1 °F 53.2 °F 29.85 in Calm     42% 0.00 in 40.00 W/m2
19:36 77.6 °F 52.7 °F 29.85 in Calm     42% 0.00 in 30.00 W/m2
19:41 77.3 °F 53.1 °F 29.85 in Calm     43% 0.00 in 23.00 W/m2
19:46 77.1 °F 53.5 °F 29.86 in Calm     44% 0.00 in 16.00 W/m2
19:51 76.7 °F 53.8 °F 29.86 in Calm     45% 0.00 in 14.00 W/m2
19:56 76.1 °F 53.8 °F 29.86 in Calm     46% 0.00 in 11.00 W/m2
20:01 75.6 °F 53.4 °F 29.86 in Calm     46% 0.00 in 9.00 W/m2
20:06 75.3 °F 53.1 °F 29.86 in Calm     46% 0.00 in 7.00 W/m2
20:12 75.1 °F 52.9 °F 29.86 in Calm     46% 0.00 in 5.00 W/m2
20:17 74.8 °F 53.2 °F 29.86 in Calm     47% 0.00 in 0.00 W/m2
20:20 74.6 °F 53.1 °F 29.86 in Calm     47% 0.00 in 0.00 W/m2
20:30 74.2 °F 53.3 °F 29.86 in Calm     48% 0.00 in 0.00 W/m2
20:35 73.9 °F 53.0 °F 29.86 in Calm     48% 0.00 in 0.00 W/m2
20:40 73.7 °F 52.8 °F 29.86 in Calm   1.0 mph 48% 0.00 in 0.00 W/m2
20:45 73.6 °F 53.3 °F 29.86 in Calm     49% 0.00 in 0.00 W/m2
20:50 73.3 °F 53.0 °F 29.86 in Calm     49% 0.00 in 0.00 W/m2
20:55 73.0 °F 53.3 °F 29.86 in Calm     50% 0.00 in 0.00 W/m2
21:00 72.9 °F 53.2 °F 29.86 in Calm   5.0 mph 50% 0.00 in 0.00 W/m2
21:05 72.7 °F 53.0 °F 29.86 in Calm   3.0 mph 50% 0.00 in 0.00 W/m2
21:10 72.5 °F 52.8 °F 29.86 in Calm   4.0 mph 50% 0.00 in 0.00 W/m2
21:15 72.4 °F 52.7 °F 29.86 in SSW 3.0 mph 5.0 mph 50% 0.00 in 0.00 W/m2
21:20 72.4 °F 52.7 °F 29.86 in Calm   6.0 mph 50% 0.00 in 0.00 W/m2
21:25 72.3 °F 52.6 °F 29.86 in Calm   6.0 mph 50% 0.00 in 0.00 W/m2
21:30 72.3 °F 52.6 °F 29.86 in Calm   5.0 mph 50% 0.00 in 0.00 W/m2
21:35 72.2 °F 52.0 °F 29.87 in South 1.0 mph 3.0 mph 49% 0.00 in 0.00 W/m2
21:40 72.2 °F 52.0 °F 29.87 in Calm   4.0 mph 49% 0.00 in 0.00 W/m2
21:45 72.1 °F 51.9 °F 29.87 in Calm   2.0 mph 49% 0.00 in 0.00 W/m2
21:50 72.0 °F 51.8 °F 29.87 in Calm   1.0 mph 49% 0.00 in 0.00 W/m2
21:55 71.9 °F 51.7 °F 29.87 in Calm   1.0 mph 49% 0.00 in 0.00 W/m2
22:00 71.8 °F 51.6 °F 29.87 in Calm     49% 0.00 in 0.00 W/m2
22:05 71.6 °F 52.0 °F 29.88 in Calm     50% 0.00 in 0.00 W/m2
22:10 71.4 °F 51.8 °F 29.88 in Calm     50% 0.00 in 0.00 W/m2
22:15 71.2 °F 51.6 °F 29.87 in Calm   1.0 mph 50% 0.00 in 0.00 W/m2
22:20 71.0 °F 51.5 °F 29.87 in Calm   1.0 mph 50% 0.00 in 0.00 W/m2
22:25 70.7 °F 51.2 °F 29.88 in Calm   6.0 mph 50% 0.00 in 0.00 W/m2
22:30 70.4 °F 51.4 °F 29.88 in Calm   5.0 mph 51% 0.00 in 0.00 W/m2
22:35 70.3 °F 51.3 °F 29.88 in SSE 5.0 mph 7.0 mph 51% 0.00 in 0.00 W/m2
22:40 70.2 °F 50.7 °F 29.88 in Calm   9.0 mph 50% 0.00 in 0.00 W/m2
22:45 70.2 °F 50.7 °F 29.87 in ESE 1.0 mph 7.0 mph 50% 0.00 in 0.00 W/m2
22:50 70.1 °F 50.1 °F 29.87 in Calm   8.0 mph 49% 0.00 in 0.00 W/m2
22:56 70.1 °F 49.5 °F 29.87 in ESE 4.0 mph 13.0 mph 48% 0.00 in 0.00 W/m2
23:01 70.1 °F 49.0 °F 29.87 in ESE 5.0 mph 9.0 mph 47% 0.00 in 0.00 W/m2
23:06 70.2 °F 49.0 °F 29.87 in ESE 1.0 mph 11.0 mph 47% 0.00 in 0.00 W/m2
23:11 70.2 °F 48.5 °F 29.87 in Calm   8.0 mph 46% 0.00 in 0.00 W/m2
23:16 70.3 °F 49.1 °F 29.87 in Calm   12.0 mph 47% 0.00 in 0.00 W/m2
23:21 70.4 °F 49.2 °F 29.87 in ESE 2.0 mph 11.0 mph 47% 0.00 in 0.00 W/m2
23:26 70.4 °F 48.7 °F 29.87 in Calm   8.0 mph 46% 0.00 in 0.00 W/m2
23:31 70.5 °F 48.8 °F 29.87 in ESE 6.0 mph 9.0 mph 46% 0.00 in 0.00 W/m2
23:36 70.5 °F 48.2 °F 29.87 in ESE 2.0 mph 7.0 mph 45% 0.00 in 0.00 W/m2
23:41 70.5 °F 48.2 °F 29.87 in East 2.0 mph 9.0 mph 45% 0.00 in 0.00 W/m2
23:46 70.5 °F 48.2 °F 29.87 in Calm   5.0 mph 45% 0.00 in 0.00 W/m2
23:51 70.4 °F 48.7 °F 29.87 in Calm   4.0 mph 46% 0.00 in 0.00 W/m2
23:56 70.4 °F 48.1 °F 29.87 in Calm   7.0 mph 45% 0.00 in 0.00 W/m2
Foresthill Weather
 WU-history PHP script courtesy of   Juneau County Weather.
powered by Cumulus v1.9.3 (1059)
Ambient Weather VWS v14.00
Top Contact Website Map Copyright © 2007 - 2018 Foresthillweather.com Never base important decisions on this or any weather information obtained from the Internet